This is the latest recevied weather packets stored in our database for station/object SP6PWT-13. If no packets are shown the sender has not sent any weather packets the latest 10 day(s).
| Time | Temp. | Humidity | Pressure | Rain* | Wind** | Luminosity | Snow |
|---|---|---|---|---|---|---|---|
| 1777815809 | 25.56° C | 26% | 998.1 hPa | 0 mm | - | 456 W/m² | - |
| 1777815508 | 26.11° C | 26% | 997.9 hPa | 0 mm | - | 464 W/m² | - |
| 1777815207 | 26.11° C | 25% | 998.2 hPa | 0 mm | - | 472 W/m² | - |
| 1777814907 | 26.11° C | 24% | 998.2 hPa | 0 mm | - | 482 W/m² | - |
| 1777814607 | 26.11° C | 24% | 998.3 hPa | 0 mm | - | 491 W/m² | - |
| 1777814306 | 25.56° C | 25% | 998.3 hPa | 0 mm | - | 500 W/m² | - |
| 1777814006 | 26.11° C | 24% | 998.7 hPa | 0 mm | - | 507 W/m² | - |
| 1777813706 | 25.56° C | 25% | 998.5 hPa | 0 mm | - | 520 W/m² | - |
| 1777813405 | 25.56° C | 24% | 998.6 hPa | 0 mm | - | 529 W/m² | - |
| 1777813104 | 26.11° C | 24% | 998.6 hPa | 0 mm | - | 535 W/m² | - |
| 1777812803 | 25.56° C | 25% | 998.6 hPa | 0 mm | - | 545 W/m² | - |
| 1777812503 | 25.56° C | 25% | 998.6 hPa | 0 mm | - | 553 W/m² | - |
| 1777812203 | 25.56° C | 26% | 998.8 hPa | 0 mm | - | 561 W/m² | - |
| 1777811902 | 26.11° C | 25% | 998.7 hPa | 0 mm | - | 571 W/m² | - |
| 1777811601 | 25.56° C | 27% | 998.5 hPa | 0 mm | - | 577 W/m² | - |
| 1777811300 | 25.56° C | 26% | 998.9 hPa | 0 mm | - | 585 W/m² | - |
| 1777810999 | 26.11° C | 26% | 999 hPa | 0 mm | - | 589 W/m² | - |
| 1777810701 | 25.56° C | 28% | 998.8 hPa | 0 mm | - | 597 W/m² | - |
| 1777810397 | 25.56° C | 28% | 998.9 hPa | 0 mm | - | 605 W/m² | - |
| 1777810097 | 26.11° C | 28% | 998.9 hPa | 0 mm | - | 612 W/m² | - |
| 1777809796 | 25.56° C | 28% | 999.1 hPa | 0 mm | - | 617 W/m² | - |
| 1777809496 | 25.56° C | 28% | 999.1 hPa | 0 mm | - | 623 W/m² | - |
| 1777809195 | 25.56° C | 28% | 999.2 hPa | 0 mm | - | 629 W/m² | - |
| 1777808895 | 25° C | 27% | 999.1 hPa | 0 mm | - | 636 W/m² | - |
| 1777808593 | 25° C | 27% | 999.3 hPa | 0 mm | - | 643 W/m² | - |
* Rain latest hour (hover to see other rain measurements)
** Current wind speed in m/s (hover to see current wind gust speed)